Theta_e
308 307 306 306 307 306 307 306 306 306 306 305 306 306 307 307 306 307 307 307 307 307 308 308 309 309 311 312 312 314 314 314 316 319 321 319 315 315 314 313 314 313 313 314 315 316 315 317 315 315 317 317 319 321 321 321 320 320 320 316 313 314 315 317 318 318 318 319 318 317 317 317 317 316 316 315 315 316 316 314 313 313 312 312 311 310 310 311
308 307 306 306 306 307 307 306 306 306 306 306 306 307 307 307 307 307 308 308 307 308 308 309 310 312 313 313 314 315 315 315 318 320 320 317 315 314 313 312 313 312 313 315 316 315 316 316 315 315 316 317 319 320 320 321 320 320 320 315 315 317 317 319 319 318 319 318 317 317 316 316 317 317 316 316 316 316 316 314 313 314 313 312 311 310 311 311
309 309 307 306 307 307 307 307 307 306 306 306 306 308 308 308 307 307 308 308 308 308 309 311 312 314 315 315 317 316 317 319 318 319 318 315 315 315 313 312 312 312 313 315 315 315 316 315 315 315 315 316 317 318 320 320 320 320 319 318 317 318 317 317 318 317 317 317 317 317 316 316 316 316 316 316 316 316 316 315 314 315 314 312 311 311 311 311
311 310 309 308 307 307 306 307 307 308 307 307 307 308 309 309 309 308 308 309 310 310 311 313 315 316 316 316 317 317 320 323 318 317 317 315 315 314 312 312 312 312 313 314 314 315 316 316 315 314 315 316 315 317 319 319 320 320 319 319 316 316 317 316 316 316 316 316 316 316 316 316 316 316 315 316 316 316 316 314 314 314 312 311 310 311 311 311
311 310 310 310 309 309 308 308 308 308 308 308 308 308 309 310 311 310 309 309 310 312 313 315 316 316 316 317 317 317 320 321 316 316 316 315 314 312 312 312 312 313 314 314 315 315 315 316 316 314 315 316 316 316 318 317 318 319 318 318 316 316 318 316 316 316 315 315 316 316 315 316 316 315 315 315 316 317 314 312 311 311 310 309 309 310 311 311
310 310 310 310 310 310 309 308 308 308 308 308 309 308 309 310 311 312 311 311 312 314 315 315 316 316 315 316 316 317 320 317 315 316 315 316 314 313 312 312 313 313 314 315 315 316 316 316 315 315 315 315 316 316 317 317 317 319 318 317 317 316 317 317 316 315 315 315 315 316 315 315 315 315 315 315 315 313 310 309 309 308 309 308 309 310 310 310
308 308 309 310 310 310 309 309 309 308 309 308 309 310 310 310 311 312 312 312 314 315 315 315 315 315 315 315 317 320 321 317 315 314 315 315 314 313 313 312 313 313 315 316 316 316 315 315 315 315 315 315 315 315 316 316 316 318 318 317 317 316 316 316 316 314 314 314 315 315 314 314 314 315 314 314 313 309 308 308 308 308 308 309 309 309 309 310
311 309 308 309 309 310 309 309 309 309 309 309 310 310 310 310 311 313 314 314 315 315 315 315 314 315 314 315 321 322 319 320 317 315 315 316 316 314 313 313 313 314 316 316 316 316 315 315 315 314 315 316 315 315 315 315 317 318 318 317 316 315 315 315 315 314 314 314 314 313 313 314 315 314 313 313 311 308 307 308 308 308 308 308 308 308 309 309
312 311 310 310 309 309 309 308 308 308 309 310 310 310 311 311 313 315 315 315 315 315 315 315 315 314 313 317 322 318 318 321 318 318 318 318 319 315 314 315 314 315 316 315 315 316 315 315 315 314 315 315 315 315 315 316 317 317 317 316 316 316 316 315 315 315 314 314 314 313 314 315 313 312 313 312 309 308 307 307 307 308 308 308 307 308 309 309
311 312 312 312 311 310 308 307 307 308 308 309 310 310 312 312 314 315 315 315 315 315 315 315 315 314 315 320 320 317 321 320 318 320 319 319 319 314 314 316 315 315 316 315 316 316 315 316 316 315 315 315 315 315 315 316 316 315 315 315 316 316 316 315 315 315 314 314 313 313 316 315 311 312 313 311 308 308 307 307 307 308 308 307 307 307 308 308
311 311 312 312 311 311 309 307 307 308 309 310 311 312 313 313 315 316 316 316 316 316 316 315 315 314 317 320 317 318 322 321 320 320 319 319 317 315 315 314 314 316 316 315 316 316 316 316 316 315 315 316 315 315 315 314 314 314 315 316 317 316 316 315 315 315 314 314 313 313 315 314 311 312 313 310 308 308 308 308 307 308 308 307 306 307 308 308
311 311 313 313 312 312 311 310 309 310 311 311 312 313 314 315 316 317 317 316 316 317 317 316 315 314 317 318 317 319 320 320 320 319 319 318 316 316 315 313 313 315 316 317 317 316 315 316 315 314 315 316 316 317 315 313 314 314 315 317 318 318 318 317 315 314 314 314 312 313 314 314 313 312 311 309 308 308 308 308 308 307 307 307 306 306 307 307
311 311 313 313 313 312 311 311 310 311 312 312 313 315 316 317 318 318 318 318 318 317 317 317 315 315 317 318 317 317 317 319 320 318 317 316 316 315 314 313 313 313 314 317 319 315 313 315 316 315 315 316 317 315 314 313 314 315 316 316 318 319 319 317 315 313 313 313 311 313 314 316 315 312 309 308 308 308 309 309 308 308 307 306 306 306 307 307
311 311 312 314 314 312 311 312 311 312 312 312 314 315 317 318 319 319 319 319 318 318 318 316 315 316 318 317 316 315 315 318 319 318 316 315 316 315 314 313 313 313 313 315 316 314 312 315 315 315 315 315 315 313 314 315 315 317 317 317 318 318 317 316 315 314 315 311 311 313 314 316 315 311 309 309 308 309 310 310 309 308 307 306 306 306 306 306
311 311 312 313 313 312 311 312 311 312 312 313 314 315 317 319 320 320 319 317 318 317 316 316 315 316 319 317 315 315 315 317 318 318 316 316 318 317 315 315 314 313 314 314 314 313 313 315 316 316 314 313 314 315 317 318 317 318 317 316 319 317 316 317 315 315 316 312 311 314 315 317 315 311 310 308 308 309 310 311 309 308 307 306 306 306 306 306
312 311 312 313 313 312 312 312 311 311 312 313 314 316 319 320 319 319 318 316 316 315 315 318 316 316 319 318 316 316 316 318 319 318 316 316 319 319 316 315 315 314 314 313 313 313 315 316 315 316 315 314 316 317 319 319 318 319 317 316 318 318 318 318 315 314 315 314 313 314 315 318 315 312 310 308 309 309 310 311 310 308 307 306 306 306 306 306
312 311 312 314 315 313 312 312 312 312 312 312 314 317 319 319 317 317 316 315 315 314 316 319 317 316 317 316 315 316 318 319 320 318 316 315 317 317 316 315 316 315 315 314 314 315 315 316 315 316 316 316 317 319 319 318 317 318 319 318 317 318 318 316 315 315 314 314 315 315 315 317 315 312 310 309 309 309 310 311 310 309 307 307 306 306 306 306
313 311 312 314 314 313 313 313 313 312 313 313 315 318 319 318 317 317 317 316 315 315 315 316 316 317 317 316 315 316 318 318 318 318 316 314 315 316 316 316 316 316 315 315 316 316 316 316 316 317 318 317 318 319 318 318 317 317 318 318 318 318 317 317 317 315 314 315 316 317 316 317 316 313 311 310 309 310 311 311 310 309 308 307 306 306 306 306
314 312 312 313 313 313 315 315 313 312 314 315 316 318 318 317 317 317 319 318 316 317 317 316 317 317 316 317 316 317 317 317 317 318 316 314 314 315 316 316 316 316 316 316 317 316 316 317 317 318 319 319 318 318 319 320 319 319 318 318 317 317 317 318 318 315 315 316 317 318 317 318 318 315 312 310 309 310 311 310 309 308 307 307 306 306 306 305
314 312 311 312 313 315 316 315 314 313 314 316 318 319 318 318 319 319 319 318 318 318 318 318 318 316 316 317 316 315 315 316 317 318 316 314 315 315 316 316 316 317 317 318 318 316 316 319 319 319 320 320 320 319 319 320 319 319 319 318 318 317 317 319 318 314 314 316 318 319 319 319 319 318 314 310 309 310 311 310 309 308 307 307 306 306 306 305
314 313 311 312 314 316 316 315 314 313 315 318 319 320 319 319 319 318 319 319 319 319 318 319 318 317 317 317 316 315 316 316 316 318 316 314 316 316 315 316 317 318 318 318 318 315 316 319 320 320 320 320 320 319 319 319 318 318 318 318 318 318 318 319 318 314 313 315 318 319 319 318 318 319 315 310 310 311 311 310 309 309 308 307 306 306 305 304
315 313 311 313 315 316 316 316 315 314 315 317 318 321 320 320 317 315 317 319 320 320 319 319 318 317 316 316 316 315 317 317 316 318 316 314 316 317 316 316 317 318 318 317 318 317 318 319 319 320 319 319 319 318 318 318 318 318 318 318 318 319 320 319 316 314 313 315 318 318 318 318 318 318 316 311 312 312 311 311 310 309 308 307 306 306 305 304
315 314 312 313 315 315 316 317 315 315 315 317 319 320 320 318 315 314 317 319 320 321 320 319 318 317 315 315 315 314 316 317 318 318 316 314 316 317 317 316 317 319 318 317 318 319 319 319 319 319 318 318 317 317 317 317 317 318 319 318 318 320 321 319 316 315 314 314 316 317 317 318 318 318 316 313 312 312 310 309 308 308 307 307 306 305 305 304
315 313 312 314 315 315 317 317 315 315 316 317 318 320 319 317 315 316 319 319 320 320 320 320 319 318 317 316 315 315 316 317 318 318 316 315 316 316 317 317 318 319 318 317 318 319 320 318 317 318 317 317 318 317 317 317 317 318 319 319 319 320 320 319 318 316 315 315 315 315 318 319 319 321 317 312 310 309 307 306 306 306 306 306 305 304 304 304
315 313 313 314 315 316 317 316 315 316 317 318 318 319 318 317 316 316 319 319 319 321 320 320 320 319 318 316 315 315 316 316 317 318 316 316 316 316 317 317 317 318 318 318 317 319 320 316 315 317 317 317 318 318 318 318 318 318 320 319 319 319 319 320 320 318 318 320 317 316 322 323 320 322 320 311 308 308 306 306 306 305 305 305 304 303 303 303
315 313 314 315 316 317 316 316 316 317 317 318 318 318 317 317 316 315 318 318 319 321 320 320 320 319 318 317 316 316 317 317 317 318 317 316 316 316 316 316 316 317 318 318 318 319 318 314 315 318 317 318 319 318 319 319 318 319 321 320 318 319 320 320 320 319 321 323 318 316 322 324 320 321 319 312 310 310 307 306 307 306 305 304 304 303 303 302
315 314 314 316 316 317 316 317 318 318 318 317 318 317 316 317 315 315 317 318 321 322 321 320 318 318 318 317 316 317 319 318 315 316 315 315 315 315 316 317 315 315 316 318 320 319 317 315 316 318 318 319 319 319 319 318 318 321 321 320 319 319 320 321 320 320 321 322 318 315 319 323 321 321 319 314 312 312 308 307 307 306 305 304 304 304 303 302
315 314 315 316 317 317 317 318 318 318 318 317 317 317 316 317 316 317 319 320 323 324 322 319 315 316 317 317 317 317 316 315 317 316 313 313 314 314 316 317 317 316 315 318 321 320 318 317 318 318 318 319 319 319 320 318 319 321 318 318 319 319 320 320 320 321 320 321 321 319 319 321 322 321 318 315 315 316 313 310 308 307 306 304 304 304 303 302
315 315 316 316 317 317 318 318 318 318 317 316 316 316 317 317 317 319 321 322 324 323 320 318 315 315 316 316 317 316 314 314 317 314 311 312 312 313 315 316 317 317 315 316 321 321 317 314 316 318 319 320 318 317 319 319 319 318 316 317 317 318 319 319 320 320 320 321 322 322 320 322 323 320 318 317 316 318 317 314 310 308 306 305 304 304 302 301
316 316 316 316 317 317 318 319 318 318 317 316 317 317 317 317 317 320 324 326 325 322 317 316 317 317 317 317 317 316 315 315 313 312 312 312 312 312 313 314 315 317 316 316 318 318 313 310 312 316 318 317 314 312 313 316 317 316 317 318 318 317 317 318 318 318 321 323 322 321 320 321 323 321 319 320 319 318 319 316 311 308 307 305 304 303 302 301
317 317 317 317 318 318 318 318 318 318 317 316 317 317 317 319 319 323 326 324 320 320 317 316 317 317 317 319 320 317 316 315 313 313 314 312 313 313 314 315 316 317 318 317 318 317 315 313 314 315 314 314 314 313 312 312 314 317 318 319 320 319 317 318 318 318 322 326 322 319 319 321 324 322 319 320 318 317 318 315 310 308 307 305 304 303 302 301
319 317 317 317 318 318 318 318 318 318 316 317 318 317 319 322 323 326 326 319 316 320 321 319 318 318 318 321 322 319 317 316 314 315 316 315 315 315 316 318 318 319 321 320 320 320 318 317 317 314 312 313 317 317 313 312 314 317 318 319 322 324 321 322 323 320 323 324 316 315 319 322 323 320 319 320 317 314 315 314 311 309 307 306 304 303 302 301
320 318 317 317 318 318 318 318 318 317 316 317 318 318 322 324 325 325 323 318 319 321 321 320 319 319 320 322 322 319 318 318 315 316 317 317 318 317 317 318 318 322 324 322 321 321 321 320 317 316 314 313 316 319 317 315 314 316 319 320 323 327 328 329 326 324 325 320 312 312 317 320 320 318 318 318 313 310 310 311 311 310 307 306 304 303 302 301
321 319 318 318 318 319 318 318 318 316 316 317 318 321 324 325 324 323 323 322 320 319 319 319 320 320 321 322 321 318 319 319 316 316 318 318 319 319 319 318 318 321 323 323 323 323 325 324 320 319 317 314 316 319 320 319 315 316 319 320 323 326 328 329 327 325 325 318 312 313 317 319 319 316 313 311 308 307 306 307 309 309 306 305 304 302 301 300
321 319 319 318 318 319 318 318 318 316 316 318 321 323 324 324 323 322 323 323 320 318 318 319 320 322 323 322 318 317 319 319 316 316 317 319 320 321 320 319 319 320 322 323 324 323 325 326 321 318 316 315 317 318 319 319 318 317 317 320 322 323 324 324 321 318 318 317 315 314 316 318 316 314 309 306 306 305 305 305 307 308 306 305 303 302 301 300
320 319 318 319 318 318 318 318 317 316 316 319 322 325 324 323 322 322 322 322 320 319 319 320 321 323 324 323 319 317 318 318 317 317 318 319 320 321 321 321 319 319 321 323 324 324 325 325 319 315 315 313 315 317 317 319 320 318 318 320 320 318 320 322 320 315 314 320 321 316 316 316 316 315 309 306 307 306 305 305 306 307 306 304 303 302 301 300
319 318 319 319 319 319 318 318 317 315 317 320 323 324 324 323 322 321 321 321 320 319 320 322 323 323 325 325 322 319 318 318 318 318 319 319 320 320 320 321 320 319 319 322 324 324 324 323 317 315 317 312 309 313 315 315 317 317 318 319 317 316 317 319 322 321 320 324 323 319 319 318 318 318 312 308 309 307 306 306 306 306 305 304 304 303 302 301
318 318 319 319 319 319 318 318 316 315 317 321 322 323 323 323 321 319 320 320 320 319 320 323 323 323 324 325 324 320 318 320 319 319 321 320 321 321 320 321 320 318 318 320 323 322 322 324 318 314 316 312 308 313 316 314 313 314 316 317 317 320 320 319 321 323 324 326 324 321 320 319 318 318 314 312 312 310 307 306 305 305 305 305 304 303 302 301
319 319 320 320 319 319 319 317 316 316 318 320 320 321 322 322 320 318 320 319 319 320 321 322 322 322 323 324 324 321 318 321 320 319 322 321 321 321 319 320 320 319 318 318 321 320 320 324 321 313 312 313 311 314 318 316 313 311 313 315 317 318 320 320 321 322 323 325 325 324 321 319 319 318 316 315 314 312 309 307 306 305 304 305 305 304 303 301
319 321 322 320 319 319 318 316 316 317 319 319 319 319 320 321 321 318 318 319 319 320 321 322 322 322 322 322 323 321 319 321 321 320 321 321 321 321 319 319 320 319 317 317 320 320 319 322 322 314 311 313 314 315 318 318 315 313 313 316 317 316 316 317 319 319 320 323 324 325 324 320 317 317 318 317 316 314 311 308 307 306 304 305 305 304 303 302
319 322 323 320 319 319 317 316 318 319 318 317 318 318 318 319 320 319 318 319 319 320 321 322 322 322 322 322 322 322 321 321 321 321 321 321 321 321 319 319 320 319 318 318 319 319 319 320 322 317 312 315 317 315 315 317 316 315 315 316 317 317 317 319 321 320 318 319 321 323 324 321 317 316 317 316 316 315 312 309 308 306 305 305 305 305 304 302
320 323 322 320 319 318 317 318 319 319 318 317 317 318 319 319 319 319 319 319 320 320 320 321 322 322 323 322 322 323 322 321 322 322 322 322 321 321 320 319 318 317 317 318 318 319 320 319 320 320 317 316 316 313 312 312 313 315 316 316 318 318 318 321 324 321 317 318 318 318 321 321 316 313 313 312 313 313 312 310 309 307 306 305 305 305 304 303
321 322 321 319 319 317 318 320 320 319 319 317 317 318 320 320 320 320 319 319 320 320 320 321 321 321 322 322 323 323 322 322 322 322 322 322 321 321 319 318 318 317 317 318 318 318 319 318 320 321 319 316 314 312 312 311 312 314 315 315 317 318 319 320 320 318 318 319 318 318 321 321 314 310 310 308 308 308 310 310 310 308 307 305 305 305 304 303
320 320 319 319 318 317 319 322 320 318 318 318 318 319 320 320 320 320 321 320 320 319 320 321 321 320 320 322 323 322 321 322 323 322 322 322 321 321 319 318 317 317 318 320 319 317 319 319 320 322 323 321 318 316 315 313 312 313 315 315 316 317 318 319 317 316 319 321 320 320 323 321 313 308 308 307 306 307 307 308 309 309 308 306 305 305 304 304
318 318 317 317 317 318 321 323 321 318 317 318 319 319 320 321 321 320 321 321 319 319 320 320 320 320 321 322 323 322 321 322 323 323 322 322 321 319 319 318 317 317 321 324 320 317 320 321 320 323 326 327 326 324 321 317 314 313 314 315 316 316 317 319 318 318 320 322 322 321 322 319 313 309 309 308 307 307 306 306 307 308 308 306 305 304 304 303
318 318 317 316 316 318 320 321 320 318 317 317 318 318 318 320 320 320 321 322 321 320 320 321 321 321 321 323 323 323 322 321 322 323 322 322 322 317 316 317 318 320 323 323 320 316 317 319 320 323 325 326 327 325 322 319 316 316 316 316 316 317 317 318 319 319 320 320 321 321 321 319 315 311 310 310 309 308 308 306 306 306 306 306 305 304 303 302
317 318 318 317 317 318 319 318 318 318 317 316 317 317 318 319 320 321 322 322 321 321 322 323 323 323 322 322 323 323 323 322 323 324 322 322 320 314 312 313 316 319 319 319 318 316 315 317 320 322 324 324 324 322 319 319 319 318 318 317 316 317 317 318 319 319 319 320 321 321 321 321 318 313 312 311 310 309 309 308 307 306 306 305 304 303 302 301
316 317 318 318 318 318 319 319 318 318 317 316 316 317 318 318 319 321 322 321 321 322 323 324 323 323 322 322 323 324 323 324 324 324 323 322 319 315 313 313 313 313 314 317 318 317 316 318 320 321 321 322 322 321 318 318 319 319 318 318 316 316 316 317 317 317 319 320 321 322 321 321 319 314 312 312 311 310 311 310 308 307 305 303 302 302 301 300
314 316 315 315 317 318 318 317 317 317 317 317 316 316 317 318 318 320 320 321 321 321 322 324 323 322 322 322 324 324 324 325 324 324 323 322 319 317 316 315 312 310 312 315 316 316 317 318 319 320 320 320 320 320 318 317 318 318 319 319 318 316 316 316 316 316 317 319 319 321 321 321 318 315 313 313 312 311 311 309 308 307 305 303 302 301 300 300
313 314 314 313 315 317 317 316 316 317 317 316 316 315 316 317 318 319 319 321 321 320 321 323 322 322 322 322 324 325 324 323 324 323 322 320 318 317 318 318 313 310 312 314 315 315 316 317 319 319 319 319 319 319 319 318 317 318 319 319 319 318 316 315 315 315 316 317 317 318 320 319 317 315 314 314 313 312 312 311 309 308 306 304 303 302 300 299
307 308 310 314 315 315 316 315 315 316 315 315 316 315 315 316 317 318 319 320 320 320 320 321 321 321 322 322 323 324 323 322 323 324 321 319 318 318 318 318 315 312 312 313 314 315 314 316 318 318 319 320 319 319 319 318 316 317 317 317 318 318 317 316 315 315 315 316 316 317 318 318 316 315 314 314 314 314 313 312 310 308 306 304 304 303 301 300
304 305 306 313 316 314 314 315 314 315 314 314 314 314 315 316 316 318 319 319 319 319 319 320 320 321 323 323 323 323 323 322 320 319 319 319 319 319 319 318 316 314 313 312 312 313 313 315 316 317 319 320 319 318 318 316 317 318 318 317 317 317 317 316 315 315 314 315 316 317 317 316 316 316 314 313 313 314 313 312 310 309 306 304 303 303 301 300
Wind_Speed
3 2 2 2 1 2 2 2 2 2 3 3 3 2 2 2 2 1 1 2 1 2 2 2 3 3 4 5 7 8 10 10 5 3 2 1 1 4 4 3 4 4 4 1 2 3 3 2 1 2 2 1 1 1 0 2 2 2 3 3 2 3 2 3 5 2 2 5 6 5 1 2 2 5 2 2 4 4 2 7 7 8 9 7 6 5 6 7
3 2 2 1 1 1 2 2 3 3 3 3 2 2 2 2 2 2 2 2 2 2 2 2 3 3 4 6 7 9 12 9 4 0 5 1 4 5 3 4 4 4 3 1 3 3 3 1 2 3 3 1 0 0 2 1 1 2 2 3 0 2 3 2 3 4 1 3 5 3 2 2 1 3 1 4 4 3 3 8 8 7 8 7 7 7 7 8
3 2 2 2 1 1 2 3 4 4 4 4 3 2 2 2 2 3 2 3 3 2 2 2 3 3 4 6 7 10 11 7 4 1 5 3 5 4 3 5 4 4 2 2 3 3 4 3 3 4 3 1 1 0 2 1 2 1 2 3 2 4 4 4 4 5 3 3 2 2 2 2 2 2 1 3 3 5 2 5 5 6 6 5 6 7 7 8
3 3 2 2 2 2 2 3 4 4 4 5 4 3 2 2 3 3 3 3 3 3 2 2 3 3 4 6 7 9 10 6 2 4 3 4 5 3 4 5 4 3 2 1 1 1 2 2 3 4 4 2 2 1 1 2 2 1 2 2 5 3 3 4 3 4 4 2 1 1 0 4 1 0 3 4 6 5 3 6 4 4 6 4 5 6 7 7
5 4 4 3 3 2 3 3 3 4 4 5 5 4 3 3 3 3 4 3 3 3 2 2 3 3 4 5 6 8 8 4 2 4 3 3 4 4 5 5 4 3 3 0 1 1 2 2 2 3 3 2 2 2 1 4 3 1 1 4 5 1 1 4 3 4 3 1 1 2 3 2 1 3 5 5 7 1 4 6 5 6 5 4 4 5 5 6
6 5 5 4 3 3 3 3 4 4 4 4 5 5 4 3 3 3 4 3 3 2 2 3 3 3 4 4 5 6 6 2 3 4 4 4 3 3 4 5 3 4 3 1 1 1 2 2 3 3 3 2 1 1 2 3 2 2 2 3 2 2 1 3 3 3 1 2 3 3 2 1 3 6 4 4 3 4 5 4 5 5 4 3 3 4 5 6
7 6 5 5 4 4 4 4 4 5 5 5 5 5 5 4 4 4 4 3 3 2 3 3 3 3 3 3 4 3 5 1 3 6 6 5 3 2 4 5 4 3 1 2 1 2 2 3 4 2 3 2 1 1 2 0 3 4 0 3 2 1 1 1 3 3 2 5 4 2 2 5 8 5 2 2 3 6 5 4 5 4 4 3 3 4 5 6
7 7 6 5 5 5 4 5 5 5 6 6 6 6 6 6 5 4 4 3 2 2 3 3 2 2 1 2 3 4 4 1 3 6 6 4 3 3 3 3 3 3 1 3 2 3 2 4 3 1 4 1 1 1 1 2 4 3 1 3 1 1 2 1 2 4 5 6 4 3 6 8 7 2 3 4 6 6 5 5 4 4 3 3 4 5 5 5
8 7 6 5 6 5 5 6 6 6 6 6 7 7 6 6 5 4 3 3 2 2 2 2 2 2 1 2 4 5 2 3 4 4 5 5 4 5 4 3 3 2 2 1 1 3 2 3 1 1 4 2 1 0 1 3 2 1 2 1 2 3 4 3 5 7 6 5 4 5 9 8 2 0 3 4 7 6 5 5 4 3 3 4 4 4 5 5
9 8 7 6 6 6 6 7 7 6 7 7 7 6 6 6 5 3 3 2 2 2 2 3 2 2 2 3 5 4 1 4 3 2 3 5 4 4 4 4 4 4 3 1 2 3 2 2 1 0 4 1 2 0 0 3 1 2 2 3 6 6 5 5 6 6 5 5 7 8 9 4 4 3 4 5 7 6 6 5 4 3 3 4 3 4 5 5
10 9 8 7 7 6 6 7 7 7 7 7 6 6 6 5 4 3 3 2 2 2 2 2 3 3 3 5 6 4 2 4 3 3 3 4 5 5 5 5 4 4 3 2 3 2 2 1 1 1 2 1 2 2 1 1 1 1 3 6 7 7 7 7 7 5 4 4 6 8 7 2 5 4 3 7 8 7 6 5 4 3 3 3 3 4 3 4
12 11 10 9 8 7 6 7 6 7 7 7 6 6 6 5 3 3 2 3 2 3 2 2 3 3 3 6 6 2 4 5 4 4 3 4 5 6 6 6 5 4 4 4 2 1 1 1 3 3 1 1 2 1 1 1 1 3 4 7 6 8 9 8 5 3 5 3 4 6 6 6 9 6 6 9 8 7 6 5 4 3 2 3 2 2 2 3
13 12 11 10 10 9 6 6 6 6 6 7 6 5 6 4 3 3 2 3 3 3 3 3 4 3 4 5 2 4 5 5 4 4 4 4 3 4 5 5 5 5 4 3 2 4 3 2 3 3 2 3 2 2 1 2 2 4 4 5 6 8 7 7 5 4 5 2 4 5 5 6 9 8 8 9 8 8 7 5 5 4 3 3 2 2 2 3
13 13 11 10 12 12 7 6 7 6 6 6 5 6 5 3 3 3 3 3 3 4 4 4 5 4 4 3 2 4 6 6 5 4 5 5 3 3 3 3 4 4 3 2 3 5 5 3 1 1 2 3 1 2 3 4 3 4 4 3 5 6 3 8 6 6 5 2 4 6 6 3 7 8 7 8 9 9 7 6 6 5 4 4 3 3 3 3
13 14 12 11 14 13 7 7 7 6 7 5 5 6 5 3 3 2 3 3 3 4 4 4 6 4 5 4 2 3 6 6 5 6 6 6 4 3 4 4 3 3 3 4 6 7 5 3 2 2 3 1 1 3 5 5 5 4 4 4 5 4 3 7 6 4 3 3 6 7 5 2 7 8 7 7 8 8 7 6 6 5 5 4 3 3 3 4
14 14 13 11 13 13 8 8 8 7 7 5 5 5 3 3 2 3 3 3 2 4 3 3 6 4 6 3 3 2 4 6 7 8 8 8 5 3 7 7 6 5 5 6 7 7 4 2 1 1 1 2 4 5 5 5 5 5 5 6 5 5 4 4 5 3 1 4 8 9 6 4 5 9 7 7 8 9 7 7 6 5 5 4 3 3 3 4
16 15 14 11 13 13 8 8 8 6 6 5 4 3 2 2 2 3 2 3 3 3 2 1 3 4 4 1 2 3 4 5 7 7 9 10 6 6 8 7 6 6 8 8 6 5 3 2 1 1 3 4 5 4 5 6 6 5 5 5 6 7 6 3 3 4 4 4 6 9 9 8 4 10 8 7 8 10 9 8 7 6 5 4 3 3 3 4
18 16 15 15 15 12 7 8 7 5 5 3 2 2 2 2 3 2 2 4 4 3 2 2 3 4 4 5 3 2 6 6 7 7 8 10 8 7 6 4 6 8 8 5 4 5 4 2 2 4 5 5 6 6 6 7 6 5 4 4 6 6 7 7 3 4 5 6 6 8 10 11 6 11 10 8 9 10 9 7 6 6 5 5 4 4 3 3
19 17 15 16 15 11 8 9 8 5 5 2 2 3 4 2 1 3 4 4 4 4 2 4 8 3 0 6 5 6 7 8 8 7 7 9 9 7 4 5 7 7 6 4 5 6 4 3 4 5 6 7 9 9 10 10 7 7 6 6 7 6 6 6 1 4 2 4 8 10 11 13 10 9 11 10 9 9 8 7 6 5 5 5 4 4 4 4
20 18 17 16 12 10 11 11 8 6 6 2 3 4 3 2 3 4 6 7 10 10 4 4 10 4 2 6 8 9 9 8 5 4 8 10 11 9 6 6 6 5 6 5 6 4 3 5 6 8 10 10 11 14 13 9 5 5 6 7 8 8 8 6 2 5 1 4 9 10 12 14 13 9 10 11 9 9 9 8 8 7 6 6 5 5 5 5
21 19 17 15 11 10 12 9 7 8 7 4 4 4 1 2 3 1 3 8 15 17 13 6 5 3 1 6 10 11 7 3 2 4 10 11 10 9 7 7 6 6 7 6 3 3 3 7 10 12 13 11 9 12 12 8 5 7 8 7 8 8 9 6 3 5 3 3 9 11 13 13 14 13 7 12 10 11 12 11 10 10 8 6 6 7 6 5
22 20 16 15 12 11 11 7 5 9 8 5 7 6 2 2 1 3 2 5 11 17 16 9 4 4 2 6 9 9 3 5 5 7 12 12 10 9 7 9 8 7 7 6 3 3 6 9 13 14 9 4 4 6 9 9 9 8 6 7 7 6 8 5 5 5 3 3 7 9 11 12 13 13 9 13 11 10 10 10 9 10 9 7 7 7 7 6
22 21 17 17 14 13 12 9 5 10 9 8 10 7 3 2 1 4 1 6 6 10 13 11 10 10 7 5 8 10 7 9 8 10 15 13 9 8 8 10 10 8 8 9 8 7 7 7 11 10 4 4 5 6 8 8 8 8 6 6 7 6 6 5 3 3 3 4 6 7 9 11 13 12 10 12 9 6 5 4 4 6 7 7 7 7 7 8
22 21 19 19 16 14 13 10 8 11 11 11 13 10 3 0 2 3 2 5 7 6 8 9 9 11 10 6 10 14 9 10 8 10 18 15 9 6 8 11 11 10 9 13 14 12 10 2 1 6 6 7 8 7 9 7 6 8 9 8 8 8 7 7 2 1 3 7 6 6 9 10 12 14 11 8 5 4 4 4 4 5 5 5 5 6 7 8
22 22 21 20 18 15 14 11 11 12 11 11 14 14 9 4 2 3 2 4 8 4 3 5 5 8 10 9 13 13 8 11 8 8 19 16 10 7 7 7 8 11 12 14 13 13 12 3 4 6 6 7 9 8 9 8 6 8 10 12 12 11 9 9 5 2 6 7 5 5 7 7 5 10 9 8 5 6 7 8 9 9 8 7 6 7 7 6
23 24 23 22 19 18 15 9 10 12 10 12 13 11 11 9 3 2 1 4 8 3 4 6 7 9 11 11 13 8 4 9 2 7 16 12 6 4 5 6 4 7 10 10 9 7 4 5 5 7 7 7 8 8 9 9 8 7 4 8 11 11 10 10 7 3 5 5 2 5 7 6 3 5 6 9 8 9 9 10 11 11 10 9 8 8 9 8
25 26 25 24 22 22 15 5 10 14 8 9 12 11 11 11 8 5 2 5 8 5 7 4 4 7 9 11 15 10 2 4 6 6 9 7 4 2 4 8 5 4 4 3 5 3 5 7 6 7 7 8 8 8 9 10 8 5 2 1 6 8 9 9 8 6 6 5 2 6 7 7 7 7 5 9 8 10 11 12 12 12 12 11 10 10 10 10
27 27 27 26 25 26 18 8 13 15 8 5 6 11 12 10 9 5 2 6 4 5 6 1 2 4 5 8 14 9 1 4 6 3 3 1 3 2 7 12 8 8 8 6 7 2 5 9 9 10 9 8 7 5 7 12 9 2 4 2 1 2 5 6 7 7 6 6 6 8 7 6 8 7 5 8 8 10 12 14 14 14 13 13 12 11 11 10
28 28 28 28 26 27 20 11 13 13 14 10 3 5 11 10 7 2 2 5 2 4 3 3 4 4 7 8 10 6 3 2 1 1 4 2 2 0 5 9 8 9 11 11 10 1 3 3 5 9 9 7 4 3 2 7 6 3 6 4 4 2 1 3 5 6 5 7 8 8 9 6 7 6 7 6 6 11 12 11 13 14 14 13 12 12 11 10
30 30 31 29 27 28 23 14 14 13 12 12 7 5 12 8 4 4 5 5 2 3 3 4 5 7 12 12 8 7 5 2 3 5 6 4 3 2 2 2 4 5 7 9 9 1 3 2 1 4 4 2 5 7 5 1 3 7 7 4 3 3 2 3 5 4 6 9 10 12 13 10 7 4 7 6 4 7 7 7 11 13 14 13 12 12 12 10
32 32 34 32 30 31 23 14 17 18 11 8 6 10 11 4 2 7 7 2 2 2 5 5 6 10 16 15 9 10 9 4 7 10 7 5 6 5 3 3 3 4 5 7 7 4 4 3 2 1 1 3 6 5 4 3 3 6 5 4 3 3 3 4 5 4 7 9 6 8 12 13 10 4 6 6 2 2 3 8 13 14 15 14 12 12 12 11
34 34 36 36 32 31 24 15 18 21 14 10 10 9 7 3 3 8 6 3 1 5 8 8 9 11 16 14 8 10 10 6 9 10 8 8 8 8 9 8 7 6 6 7 6 4 5 7 6 3 0 4 6 4 3 2 3 5 5 6 5 4 4 5 5 6 8 6 1 2 5 10 11 8 10 8 3 5 2 4 11 16 15 14 14 13 12 11
37 36 38 38 35 33 28 21 21 22 19 15 11 4 3 5 8 11 10 5 1 2 6 8 11 12 15 12 6 8 7 5 9 10 8 10 8 9 12 11 11 8 4 6 7 4 3 6 8 6 3 7 11 8 5 4 6 9 8 8 7 6 6 8 7 7 7 3 2 2 2 5 7 7 12 9 3 6 4 4 6 14 15 15 15 14 12 12
38 39 40 40 38 35 31 27 25 26 24 18 10 5 5 8 9 12 15 10 3 4 5 8 10 10 12 9 5 9 5 3 10 9 7 9 8 9 11 13 17 11 3 4 6 6 6 4 9 11 6 10 15 12 8 6 8 10 9 8 8 6 7 8 7 7 5 1 1 2 3 5 4 1 2 1 4 5 4 3 3 10 13 12 13 13 12 12
40 42 42 39 39 37 34 31 30 30 25 15 7 8 9 9 9 11 12 8 5 4 5 8 10 9 10 6 4 8 4 1 9 8 5 10 8 9 11 12 17 13 6 6 4 6 9 6 8 9 4 13 16 10 7 6 6 7 6 8 9 6 6 6 2 1 1 2 2 5 3 4 3 3 4 4 4 4 4 4 6 10 13 12 12 13 12 12
43 43 40 38 39 39 38 35 35 34 23 10 8 8 10 10 7 6 7 8 8 8 9 8 8 7 9 6 5 9 4 1 8 7 5 9 8 10 11 9 15 17 12 8 3 5 7 3 6 5 3 10 8 5 8 5 3 5 7 8 4 1 3 5 2 3 0 6 5 6 5 5 3 3 5 6 5 6 6 6 8 11 14 14 12 12 12 12
42 37 33 37 40 41 42 40 38 33 16 7 10 9 10 11 5 2 6 9 10 13 11 7 7 9 10 7 6 11 7 3 9 7 4 7 6 11 14 9 13 20 17 10 3 3 5 2 3 5 5 4 2 1 4 1 1 4 5 5 3 3 2 3 5 2 3 9 5 6 9 8 6 5 5 7 7 8 9 8 10 11 13 13 12 12 13 12
34 25 21 33 42 42 44 46 41 26 9 5 10 10 10 11 8 6 7 9 11 14 11 9 9 10 10 8 8 12 11 7 10 8 5 6 5 9 16 11 11 19 19 11 3 2 4 4 2 3 2 4 2 2 4 2 1 0 2 2 3 3 5 5 5 5 6 9 6 7 11 9 9 6 6 10 11 11 11 11 11 13 14 13 13 14 15 13
24 12 10 28 43 43 47 50 36 17 7 9 10 10 11 11 11 10 7 8 11 12 12 12 10 10 11 11 9 13 14 10 11 9 7 7 5 9 16 11 10 16 19 13 5 2 5 5 3 0 1 5 5 5 7 7 4 1 3 3 2 2 4 5 6 4 5 8 7 7 8 7 9 9 10 13 14 13 14 12 12 14 15 14 13 14 15 14
13 4 4 22 41 45 48 42 22 10 10 11 10 10 11 8 9 13 13 11 10 10 12 13 13 12 11 13 11 11 12 11 11 9 8 9 7 8 14 12 10 13 16 14 6 2 4 5 4 0 1 4 5 7 11 11 9 7 6 7 6 3 1 3 5 5 5 7 7 7 7 5 4 7 11 15 14 13 15 13 12 13 14 14 14 15 15 14
6 5 3 21 41 46 41 23 8 9 10 10 12 13 12 8 8 14 18 15 11 8 7 8 12 12 11 13 12 9 9 10 11 9 8 11 10 7 11 14 11 10 11 10 7 6 5 5 5 3 4 7 6 5 6 5 7 9 9 10 10 8 5 4 7 6 4 5 4 6 9 5 2 2 4 7 7 9 12 12 11 12 14 14 14 15 15 14
3 6 5 27 48 46 28 10 6 9 8 10 15 13 7 8 10 13 18 18 14 10 5 5 10 13 11 13 12 10 10 9 10 11 9 11 13 9 11 15 14 14 10 6 8 7 3 2 6 5 4 6 3 3 2 1 2 5 7 9 9 9 9 8 7 4 4 3 1 3 8 5 3 3 3 3 3 3 6 9 10 11 13 13 13 14 14 14
3 5 7 31 53 40 15 8 9 8 9 11 13 10 7 9 12 13 15 18 15 12 9 7 10 14 14 12 12 12 12 9 11 14 11 11 13 9 12 16 15 14 9 5 5 4 3 1 6 5 3 3 3 3 2 1 1 5 7 8 8 8 9 7 3 0 3 5 3 3 9 4 3 3 4 4 4 4 3 6 9 9 10 11 12 13 13 14
3 3 3 27 52 38 10 7 9 8 12 11 10 12 10 9 13 15 16 18 15 12 12 11 11 14 14 12 11 13 13 10 12 14 12 10 7 3 9 17 17 14 10 5 6 7 5 4 4 4 6 5 5 5 4 3 4 7 8 8 9 8 6 3 1 2 6 9 8 7 10 3 3 3 2 2 2 2 2 3 7 8 8 10 11 11 12 13
2 2 1 13 32 25 10 10 12 11 14 14 12 16 14 9 10 16 17 17 15 14 13 13 14 15 12 9 9 12 14 13 11 10 9 9 4 2 4 14 17 14 7 2 6 9 6 5 8 8 9 10 8 6 6 6 5 5 7 11 13 14 12 6 2 5 9 6 8 10 9 1 2 0 1 1 1 3 4 5 5 6 8 9 9 9 10 11
2 3 1 4 9 9 6 6 10 12 14 14 11 14 17 14 11 12 14 14 14 15 12 11 12 14 13 12 11 12 15 16 12 7 7 8 5 2 1 6 8 6 3 5 7 7 2 3 11 14 13 13 8 2 4 9 8 9 13 15 16 17 17 10 5 9 8 2 7 15 12 4 3 5 6 5 6 6 6 8 7 6 8 8 9 9 9 9
3 3 4 4 2 6 6 3 5 9 13 13 9 9 16 19 13 9 11 11 11 12 11 7 8 12 15 18 16 14 15 17 14 12 11 8 3 3 1 1 1 1 3 6 7 6 2 5 13 16 18 19 10 3 6 9 10 14 16 18 17 16 16 14 14 16 9 4 11 13 12 11 10 10 10 9 9 8 8 9 9 8 9 8 8 9 9 9
4 2 3 3 1 5 9 9 7 9 14 14 8 7 13 18 16 10 10 10 8 10 8 6 11 18 19 19 15 12 13 14 15 16 14 7 4 4 2 1 2 2 2 3 4 4 3 8 12 13 17 21 14 6 6 8 9 10 13 17 18 18 19 19 22 22 14 11 13 6 13 16 13 11 12 10 10 10 9 8 7 8 9 9 9 10 10 10
2 1 1 2 1 4 8 10 6 7 13 13 9 11 13 17 20 15 9 6 7 11 11 10 16 19 18 16 14 12 13 13 15 16 12 6 5 6 4 3 4 3 3 3 3 2 3 7 9 10 14 19 18 14 10 7 8 10 12 15 17 21 24 23 24 24 19 20 19 7 9 13 9 10 12 10 8 7 5 5 5 7 8 8 9 9 9 11
3 3 2 1 2 2 4 6 4 5 9 9 10 12 13 18 22 18 11 9 9 11 13 17 21 18 16 17 16 14 16 17 18 15 10 9 8 8 8 5 5 6 6 5 2 1 3 6 7 7 9 16 17 17 14 10 10 12 13 14 17 20 21 21 21 20 17 21 23 16 13 12 6 8 8 6 5 4 5 4 4 5 6 7 7 7 8 10
1 1 1 3 4 4 4 4 6 6 6 6 9 10 12 18 22 17 11 10 11 11 12 19 24 17 13 17 18 19 21 19 17 11 9 13 11 9 8 5 7 9 8 6 3 4 6 4 2 5 8 14 14 15 14 8 5 11 16 20 22 17 14 17 19 17 18 21 21 17 16 10 6 7 4 4 4 5 5 4 3 3 5 7 7 8 9 10
2 1 0 2 5 6 5 4 6 7 5 5 9 10 11 15 14 11 7 5 9 11 8 12 16 10 9 16 18 19 16 10 5 3 3 7 5 3 5 5 8 11 10 7 3 3 6 5 3 6 8 11 8 8 8 3 1 10 16 20 22 17 13 15 17 18 20 18 15 13 12 5 6 7 5 3 3 5 4 4 4 5 6 7 9 9 9 10
Wind_Direction
121 119 121 129 183 222 234 238 241 243 238 239 239 245 244 226 226 247 270 286 298 310 287 290 296 310 323 325 339 340 338 343 337 334 357 320 194 159 159 156 160 150 132 119 257 263 248 225 24 331 261 191 327 36 64 2 341 269 243 238 230 179 161 160 170 151 104 129 133 126 122 270 166 143 148 217 218 239 186 114 94 79 76 74 67 32 15 12
124 116 114 142 240 286 295 286 275 271 263 255 263 273 262 250 248 250 263 273 272 260 259 275 290 315 328 330 342 335 339 339 283 353 34 7 168 146 132 141 150 140 118 350 284 286 293 329 9 298 261 194 79 3 203 17 303 276 281 245 230 82 80 64 101 83 75 130 125 114 70 312 321 85 128 243 198 221 221 143 137 112 98 85 63 38 28 26
157 149 146 171 253 302 295 295 288 279 272 258 263 273 254 249 249 246 249 259 260 254 261 277 300 327 329 335 338 333 340 322 250 76 49 94 136 130 125 138 140 133 110 348 323 323 331 355 338 298 275 223 81 270 222 21 306 283 289 257 85 80 92 76 76 76 65 82 125 130 76 282 299 50 245 272 266 245 216 125 155 130 94 70 52 31 26 28
179 189 191 200 220 246 272 282 279 269 263 251 243 247 239 237 250 255 248 249 258 259 274 294 318 334 330 337 333 336 336 295 225 83 75 105 116 123 124 130 137 121 82 346 342 0 332 315 311 300 274 226 114 241 250 43 331 306 313 334 84 105 124 103 83 81 77 47 315 118 132 267 222 316 269 282 280 240 118 56 45 70 61 53 46 28 23 26
200 203 202 216 217 226 245 254 266 258 254 248 237 236 234 237 242 247 246 246 258 266 294 304 319 331 331 336 332 340 328 286 114 110 141 123 114 121 128 133 140 103 79 193 30 0 278 281 289 277 259 233 147 216 85 55 332 276 30 39 82 102 110 114 96 79 82 33 289 220 247 278 120 254 258 261 280 267 83 45 41 52 52 47 36 27 27 30
212 213 213 222 223 230 237 243 256 252 249 242 232 233 239 247 237 234 245 242 252 270 289 302 321 327 329 329 328 335 313 304 122 167 165 144 137 128 147 146 136 100 95 238 329 287 273 279 259 254 257 257 222 249 65 65 314 284 116 89 85 353 32 117 119 99 82 255 236 242 270 327 260 258 250 252 299 68 72 56 68 64 63 57 46 42 37 36
220 220 226 233 238 243 247 250 252 251 241 228 225 231 239 246 242 238 241 242 254 273 290 302 315 318 324 315 314 300 276 315 133 183 174 168 167 159 174 159 151 119 133 265 296 281 288 270 262 282 268 258 241 106 63 51 259 283 163 128 102 358 318 118 131 152 220 251 253 292 308 258 250 254 227 200 94 91 91 81 85 81 82 81 69 61 51 48
234 229 237 245 254 260 262 259 256 255 242 228 227 231 236 238 243 247 243 245 252 269 287 298 304 307 320 308 303 275 258 72 124 186 190 193 193 196 194 168 168 131 206 276 319 312 290 261 271 283 261 276 344 127 72 268 230 267 318 125 133 242 239 214 190 210 225 244 251 248 256 250 245 263 232 171 111 108 112 100 104 107 103 91 68 60 57 56
244 244 251 255 264 267 269 269 259 255 246 236 233 231 236 236 239 249 251 253 255 274 280 278 278 252 247 280 288 285 284 97 122 193 201 215 224 209 192 183 198 180 223 250 293 283 260 265 270 276 297 11 294 256 94 267 229 19 14 133 233 238 236 231 233 234 223 231 218 225 250 244 205 231 230 152 121 122 123 119 123 130 112 87 69 57 47 45
241 245 254 262 271 264 263 269 258 252 249 244 240 239 244 243 244 251 254 252 256 271 265 264 251 214 260 263 256 275 65 106 136 186 202 215 212 194 195 196 202 219 233 204 242 259 266 308 43 334 311 325 223 212 170 277 351 30 323 274 259 253 243 228 243 243 220 227 209 226 257 221 137 214 226 134 134 140 135 135 133 139 108 82 69 60 44 38
241 240 246 258 270 269 263 265 257 249 250 248 245 248 255 253 252 255 247 245 252 259 255 256 229 222 267 255 257 276 126 130 151 168 179 192 185 184 205 201 189 220 243 230 231 268 315 327 116 212 300 160 173 182 211 328 3 330 311 285 254 240 234 219 232 237 216 225 204 226 259 169 148 217 190 129 145 155 149 143 137 140 103 82 63 60 46 41
243 238 241 248 259 272 271 267 260 251 252 248 242 251 264 259 256 258 238 238 241 239 241 228 215 216 253 255 260 243 157 153 166 179 177 177 188 192 201 202 192 203 248 262 209 180 289 139 201 233 3 334 219 185 158 90 308 303 296 288 272 249 237 210 201 206 213 208 173 212 251 219 200 190 130 132 151 158 163 160 150 148 118 107 87 88 77 56
240 239 236 240 252 263 268 273 266 259 259 246 244 265 269 262 257 249 229 236 237 229 226 217 212 201 253 264 219 164 172 174 172 171 173 160 169 188 193 202 199 198 236 279 157 162 192 149 239 254 31 299 275 79 130 176 270 284 255 271 292 271 231 175 152 167 196 169 157 208 262 233 189 155 127 142 159 166 176 177 172 167 152 155 145 149 121 89
237 237 226 225 248 257 259 269 266 262 262 247 252 271 267 262 252 241 232 238 236 228 220 216 210 195 243 259 127 184 199 186 171 161 167 147 136 161 171 188 197 200 209 205 163 156 157 141 232 190 84 317 17 110 234 214 226 262 257 240 256 273 193 143 151 177 185 157 178 213 268 245 149 136 140 152 167 176 188 181 178 179 164 170 164 163 145 115
240 237 225 217 240 257 257 261 264 254 255 249 258 269 261 245 234 229 228 232 237 222 207 210 201 195 256 246 141 212 203 186 183 184 183 158 159 169 146 149 142 148 150 147 151 135 129 152 201 188 109 47 166 208 251 239 223 231 259 250 224 243 176 145 154 192 193 149 188 211 263 241 145 148 149 152 177 186 200 187 176 184 170 172 171 163 152 128
247 236 230 224 242 260 264 264 266 248 241 235 248 263 240 222 211 220 217 203 204 184 170 206 199 223 281 247 140 189 194 193 194 200 199 176 176 164 135 131 118 114 115 118 128 124 125 166 218 298 129 176 216 233 259 255 242 216 232 262 245 238 236 168 146 183 185 150 190 211 259 287 140 148 150 156 184 193 207 201 182 185 175 175 176 166 163 144
249 238 227 222 237 250 255 273 278 246 220 215 237 259 218 200 178 196 181 163 171 160 182 260 186 221 267 177 175 206 168 175 182 187 196 180 167 150 143 140 129 122 115 114 130 140 154 170 144 255 214 224 231 230 251 251 250 224 209 249 260 249 253 242 151 143 169 190 215 216 242 273 164 146 158 165 181 197 209 209 192 184 180 177 174 172 178 164
250 246 227 219 229 236 242 279 283 217 185 183 216 222 175 172 176 185 165 157 131 112 247 252 191 234 238 182 180 145 124 141 160 164 179 173 159 154 156 155 146 144 140 139 172 178 188 189 193 239 226 219 220 212 225 240 268 277 243 254 267 245 239 252 227 144 176 206 238 232 235 257 213 156 164 172 179 200 208 205 196 189 184 178 179 181 173 168
246 246 231 224 224 220 224 264 270 195 161 154 163 127 100 90 225 215 201 186 170 186 234 184 190 233 89 156 130 92 111 132 142 149 162 160 155 157 159 156 160 171 173 171 185 186 193 190 195 239 232 216 215 213 225 246 280 304 290 284 283 266 253 259 195 113 175 233 249 251 250 259 244 182 169 171 180 200 206 198 193 194 190 183 185 182 172 175
241 242 230 218 211 210 220 251 258 183 151 155 145 124 124 186 228 205 192 206 218 231 281 192 197 224 79 131 124 114 119 129 138 149 157 157 157 160 160 159 169 198 212 199 183 168 191 216 216 228 230 228 226 220 232 256 286 294 285 277 271 268 270 266 140 112 103 259 259 260 260 263 262 237 182 166 180 197 202 200 198 197 192 191 189 179 178 173
238 239 225 205 201 215 221 244 241 179 161 167 172 182 208 219 228 215 180 216 223 233 258 248 217 268 97 122 142 145 130 145 174 161 163 163 166 173 171 173 184 203 212 200 154 118 189 225 230 234 240 247 243 226 230 247 256 263 267 266 262 257 266 267 136 126 131 245 267 269 267 261 263 262 193 159 183 200 202 203 202 197 188 188 187 181 179 160
235 237 220 198 199 208 212 239 224 178 167 178 203 224 306 348 336 29 10 251 230 224 239 245 246 259 147 122 161 170 187 195 172 168 173 171 184 196 178 179 206 206 179 169 153 179 214 231 237 241 246 238 235 226 228 241 248 254 252 253 260 257 267 259 139 138 163 237 274 275 274 267 265 261 194 172 198 204 201 204 198 192 186 187 187 181 178 167
233 231 212 195 193 192 207 235 209 175 182 199 212 223 278 320 59 42 331 277 262 215 218 219 220 222 190 156 177 181 207 208 196 183 175 176 193 208 190 186 213 209 173 188 206 218 224 236 239 231 201 190 217 221 223 240 243 240 237 242 252 248 261 254 156 134 189 234 284 297 286 272 269 256 201 186 201 184 169 182 181 187 189 188 186 181 180 176
229 222 204 192 187 190 212 224 190 186 205 216 224 227 246 32 86 25 301 271 264 212 198 204 214 220 200 163 173 186 211 223 223 184 172 182 184 187 207 202 215 216 198 207 212 228 237 236 186 193 187 216 227 214 212 230 238 229 228 233 249 249 247 254 249 87 237 237 245 272 284 272 258 243 212 176 174 173 163 177 191 200 196 183 172 176 184 179
223 212 198 191 188 193 205 204 189 199 212 222 237 236 233 243 34 359 306 268 252 214 171 195 202 213 189 147 163 181 216 227 228 170 169 187 183 168 204 209 221 223 214 214 216 238 241 168 121 175 184 214 222 218 208 215 244 240 223 221 241 258 259 265 279 324 283 262 202 213 270 277 246 231 205 158 176 203 187 195 205 200 193 188 183 183 182 173
218 207 196 193 194 192 192 197 195 198 209 224 240 238 225 228 239 299 273 272 259 203 138 180 179 180 171 155 158 152 222 225 211 132 164 190 202 176 204 190 212 240 223 216 224 250 226 142 155 177 177 199 214 232 212 202 240 259 232 210 230 255 263 264 266 248 270 285 161 188 258 278 264 240 188 154 189 201 187 203 207 197 191 190 191 186 178 172
214 203 192 192 198 192 182 175 182 181 201 229 234 232 220 213 220 247 255 267 261 169 136 178 183 171 163 161 161 150 205 175 99 125 166 189 196 175 233 192 171 238 217 190 226 228 151 158 175 176 190 207 214 236 210 193 228 257 27 175 216 242 254 251 249 238 256 290 212 194 240 273 270 258 186 157 189 199 195 209 206 196 192 185 185 181 174 173
212 199 189 191 201 199 185 159 168 180 207 205 193 215 211 202 214 236 234 251 262 123 130 153 103 119 125 155 172 167 121 124 135 158 117 152 200 173 226 213 204 208 181 180 220 203 145 176 184 183 199 215 217 237 188 185 221 242 74 65 147 237 258 247 242 243 255 274 250 208 207 250 264 247 188 179 213 224 211 204 199 195 189 181 180 176 169 165
210 197 190 193 203 204 196 179 174 191 214 205 187 201 186 187 206 211 240 238 205 107 126 140 128 124 128 156 185 174 113 111 187 123 103 149 243 270 230 231 237 214 187 205 230 318 86 184 200 197 208 218 192 54 116 192 216 144 115 96 87 94 250 228 239 250 248 251 251 222 194 225 270 241 197 195 226 241 229 198 188 187 180 176 174 169 163 158
210 199 193 195 201 201 199 198 196 198 205 214 242 186 160 172 196 180 212 228 196 115 102 139 156 153 151 159 184 189 169 117 91 129 145 161 189 254 286 273 261 220 191 221 247 289 99 79 334 221 222 200 110 68 33 32 128 139 142 121 121 167 178 208 234 242 254 252 241 223 206 216 268 243 203 213 218 238 230 175 167 174 173 172 169 165 161 156
211 204 199 199 200 198 195 199 201 199 197 205 199 158 157 177 211 199 206 247 334 142 133 153 150 148 164 168 177 192 188 149 134 154 157 148 173 195 187 176 205 211 210 232 244 223 174 169 170 162 80 101 112 94 52 49 123 159 170 169 180 198 180 214 223 202 247 257 232 215 210 213 236 231 207 223 164 168 204 160 163 171 172 170 166 164 160 157
213 208 205 205 204 199 197 194 190 193 197 181 158 158 176 181 207 227 205 92 27 183 151 156 160 162 179 182 178 179 178 168 165 173 173 167 181 191 194 193 170 181 228 222 211 212 215 210 179 127 140 187 169 146 102 105 191 195 189 186 200 216 206 226 221 203 236 251 112 138 201 218 236 243 241 242 129 108 107 143 167 172 171 168 164 162 159 157
216 211 210 211 208 202 200 194 186 191 188 164 152 175 219 191 204 220 206 172 175 157 122 145 168 173 181 187 180 162 165 174 172 180 186 181 192 200 206 211 193 200 245 197 188 195 208 208 183 169 193 197 193 188 173 172 187 195 191 186 198 214 233 243 236 233 237 224 83 108 171 235 253 247 243 242 109 93 74 68 163 168 165 164 160 158 156 156
219 214 213 213 210 206 200 193 191 189 176 155 152 179 196 215 218 211 212 208 166 91 99 137 156 169 183 189 166 157 164 180 171 174 182 183 202 207 205 213 209 216 245 186 194 197 217 240 184 181 172 173 192 210 210 179 178 196 197 198 211 215 238 250 242 247 250 142 126 165 167 218 221 150 207 166 86 91 86 68 134 155 156 154 152 155 156 158
219 214 213 211 210 207 197 191 192 182 165 152 164 179 188 215 222 213 215 200 154 113 109 135 144 165 194 197 164 173 189 197 172 173 188 194 208 207 200 206 205 204 201 205 207 188 226 256 165 162 141 163 185 213 208 175 175 194 197 212 226 228 244 261 262 246 310 346 212 190 216 244 204 119 108 112 121 132 121 122 148 152 151 150 154 160 161 162
215 210 209 206 207 204 193 188 186 174 159 158 181 189 202 212 214 209 197 182 173 142 128 148 164 180 198 190 180 191 201 127 168 174 208 213 228 223 212 203 194 197 196 192 187 182 221 255 134 136 140 167 185 199 182 184 177 172 192 209 212 6 278 260 240 112 90 278 246 178 221 261 239 201 147 141 165 161 152 157 161 161 157 157 165 167 166 168
208 204 203 203 205 201 191 186 181 171 160 180 197 199 211 217 220 181 181 192 174 142 144 178 185 190 199 193 190 188 177 147 171 185 194 192 228 225 213 209 192 198 203 198 222 225 219 262 160 172 179 159 11 9 173 261 32 153 195 195 115 42 328 270 257 238 229 258 252 182 215 228 215 219 148 153 185 181 177 171 163 170 169 167 173 172 171 171
207 202 204 206 203 197 191 184 177 169 163 204 211 217 222 222 219 202 198 195 164 151 181 215 194 188 199 201 189 175 174 174 175 189 187 178 221 202 190 202 198 199 205 204 238 243 205 241 208 180 174 126 85 196 189 221 233 134 266 190 136 221 226 203 229 254 240 248 259 221 221 222 214 211 160 176 196 188 180 175 173 180 180 176 175 173 172 169
210 207 223 210 200 194 188 181 172 164 178 197 205 219 226 228 218 212 215 198 175 173 201 219 210 204 208 213 197 168 176 186 169 178 199 190 206 183 176 186 198 200 200 193 201 206 194 228 231 9 43 131 147 200 196 187 182 337 293 224 196 252 234 208 215 242 243 247 265 244 221 220 218 207 185 189 195 183 174 178 186 186 183 181 175 173 174 173
209 227 250 199 193 189 183 177 169 164 187 194 200 212 222 226 212 212 221 217 203 202 212 218 215 214 214 217 208 173 179 197 180 185 208 188 182 185 179 184 192 195 194 189 196 194 177 217 229 82 90 161 178 202 203 195 183 185 208 206 197 192 241 280 242 231 238 246 257 257 252 241 204 196 197 195 191 180 174 179 188 185 183 181 176 176 178 175
197 244 213 176 182 180 175 176 181 175 181 193 205 217 220 215 208 211 217 222 225 226 231 234 226 224 221 217 211 178 177 203 196 197 211 197 201 202 180 187 185 164 170 187 204 202 185 206 216 179 179 207 207 196 205 210 192 192 199 199 199 193 183 232 234 213 218 248 252 265 272 264 132 134 201 188 179 173 172 175 176 176 179 179 179 182 180 176
193 246 172 166 175 172 167 185 198 176 189 199 204 213 197 192 216 217 212 217 228 231 233 253 241 236 230 220 215 186 174 196 200 204 215 207 214 212 178 183 174 149 149 177 197 196 151 180 222 211 196 205 181 105 81 337 256 240 231 214 207 202 195 212 229 191 175 229 273 285 277 274 96 58 49 77 57 86 145 161 165 170 176 177 180 181 179 180
222 230 155 165 172 168 167 208 186 183 214 206 205 210 182 187 209 211 206 209 217 220 217 226 232 234 236 232 226 201 184 192 199 203 216 215 216 208 175 172 162 153 160 166 168 156 82 135 223 229 219 181 132 127 120 75 263 254 246 224 213 217 209 213 252 19 189 210 179 226 257 255 82 34 32 60 46 48 99 151 160 165 170 171 176 177 178 180
226 227 141 171 173 169 177 216 186 200 219 207 203 208 209 215 210 206 205 203 205 210 216 223 223 227 234 236 234 213 194 200 207 201 209 213 209 184 165 167 164 169 185 183 162 162 162 181 198 223 239 222 195 195 191 179 200 224 230 216 216 226 216 206 324 317 245 221 187 218 252 244 81 31 13 52 71 102 125 154 159 161 165 167 169 172 175 176
201 217 357 183 180 177 192 205 193 202 212 208 205 206 214 225 215 215 214 208 208 209 215 226 224 225 228 223 234 227 208 212 217 202 205 207 187 71 168 176 179 188 195 141 144 165 177 179 174 195 227 225 219 220 204 179 177 213 221 209 212 213 207 205 202 230 245 221 179 218 246 246 72 310 234 209 200 176 169 172 169 160 159 162 163 167 172 172
200 222 195 186 199 206 220 207 194 197 202 204 206 208 213 216 216 215 212 212 211 207 217 228 217 220 226 217 226 233 222 224 227 213 210 205 175 92 194 193 193 190 119 98 140 158 152 197 193 201 216 222 227 223 146 140 152 199 211 205 207 208 207 210 221 228 232 180 208 227 230 222 212 211 217 212 201 200 187 179 180 166 157 162 165 167 173 172
214 233 183 164 211 227 236 246 195 197 197 195 196 201 206 214 218 200 199 212 204 198 218 231 205 211 217 213 220 229 226 226 228 226 221 208 150 77 81 225 283 61 106 142 165 153 112 227 216 216 227 232 231 173 145 161 183 203 206 206 207 206 203 204 221 227 210 204 248 230 206 223 225 198 206 210 195 203 197 181 180 171 163 163 161 161 170 173
211 214 190 194 205 209 224 225 203 206 205 195 202 219 208 213 218 202 197 211 202 195 208 222 218 219 217 214 218 224 224 224 228 229 224 202 131 117 132 169 237 227 145 164 190 161 170 226 221 216 233 241 236 212 182 195 216 211 202 206 204 200 200 203 220 227 212 221 249 192 172 217 226 191 196 198 191 200 189 164 152 147 150 153 156 164 173 178
197 211 203 260 265 195 220 223 203 216 214 198 205 225 215 214 217 212 202 196 201 205 202 212 223 221 218 219 219 220 219 217 224 228 215 183 159 165 179 200 202 195 154 171 215 178 181 236 224 207 234 246 240 232 218 209 232 232 218 212 203 201 203 205 217 225 219 230 245 224 198 231 225 187 187 180 183 188 147 120 117 127 141 150 162 175 181 184
190 217 164 177 237 193 215 220 197 220 224 206 210 220 216 217 219 215 205 193 200 204 200 217 227 219 211 217 219 224 224 218 225 227 194 178 193 194 200 195 155 160 178 183 202 206 205 233 218 192 238 250 240 237 235 224 229 239 238 230 219 211 205 205 217 222 220 235 245 246 254 255 218 181 169 140 137 123 109 126 128 124 141 154 173 190 189 193
144 285 133 161 201 185 182 199 192 214 227 209 215 220 217 222 223 219 214 205 208 207 199 217 229 225 214 218 219 226 229 226 232 235 194 191 205 202 204 186 138 154 185 184 166 182 196 217 180 163 223 247 236 226 228 223 232 250 251 243 232 219 202 205 216 215 212 226 234 237 249 246 181 156 130 103 124 134 141 155 142 143 161 168 193 203 198 198
100 7 90 188 202 187 185 192 191 210 220 202 215 224 225 232 230 218 219 223 221 221 210 220 235 236 225 226 226 229 235 232 236 268 206 198 202 174 178 167 148 157 173 176 166 182 189 201 197 176 214 248 240 207 200 171 209 246 248 244 233 221 208 210 216 216 215 218 221 227 237 218 143 146 152 145 146 152 168 183 183 189 181 185 205 207 198 197